Flight Track Log - Related Links

Times and Time Zones

All times are in EDT time to prevent confusion due to time zone crossing. See the QFA557 flight status page for this flight to view local times or setup timezone preferences in your user account.

Time Position Orientation Groundspeed Altitude Reporting Facility
EDT Latitude Longitude Course Direction KTS MPH feet Rate Location/Type
06:35AM -27.3820 153.1230 112° Southeast 8 9  Level FlightAware
06:35AM -27.3830 153.1240 138° Southeast 17 20 179 Level FlightAware
06:36AM -27.3830 153.1250 90° East 17 20 194 Level FlightAware
06:36AM -27.3840 153.1250 180° South 15 17 203 Level FlightAware
06:36AM -27.3850 153.1250 180° South 19 22 214 Level FlightAware
06:36AM -27.3870 153.1240 204° Southwest 20 23 226 Level FlightAware
06:37AM -27.3900 153.1220 211° Southwest 21 24 250 Level FlightAware
06:37AM -27.3920 153.1210 204° Southwest 23 26 286 Level FlightAware
06:38AM -27.3940 153.1190 222° Southwest 12 14 333 Level FlightAware
06:38AM -27.3950 153.1200 138° Southeast 9 10 387 Level FlightAware
06:39AM -27.3960 153.1220 119° Southeast 8 9 480 Level FlightAware
06:40AM -27.3940 153.1240 42° Northeast 63 72 857 Level FlightAware
06:40AM -27.3850 153.1290 26° Northeast 140 161 1,333 Level FlightAware
06:40AM -27.3700 153.1370 25° Northeast 143 165 1,000 2,182 Climbing FlightAware
06:41AM -27.3520 153.1510 35° Northeast 179 206 2,000 2,204 Climbing FlightAware
06:41AM -27.3370 153.1672 35° Northeast 191 220 2,800 2,400 Climbing Aus ATC (RADAR)
06:41AM -27.3360 153.1690 35° Northeast 213 245 3,000 2,833 Climbing FlightAware
06:42AM -27.3170 153.1980 54° Northeast 256 295 4,500 3,400 Climbing FlightAware
06:42AM -27.3250 153.2360 103° East 262 302 6,400 3,900 Climbing FlightAware
06:43AM -27.3350 153.2450 141° Southeast 258 297 7,100 3,840 Climbing FlightAware
06:43AM -27.3500 153.2500 164° South 255 293 8,000 2,800 Climbing FlightAware
06:43AM -27.3880 153.2350 199° South 281 323 9,200 2,657 Climbing FlightAware
06:44AM -27.4370 153.2090 205° Southwest 318 366 11,100 3,266 Climbing FlightAware
06:45AM -27.4980 153.1833 205° Southwest 333 383 13,500 3,600 Climbing Aus ATC (RADAR)
06:45AM -27.5030 153.1810 205° Southwest 336 387 13,800 2,927 Climbing FlightAware
06:45AM -27.5550 153.1590 201° Southwest 352 405 15,500 2,925 Climbing FlightAware
06:46AM -27.6210 153.1300 201° Southwest 364 419 17,700 3,190 Climbing FlightAware
06:47AM -27.6837 153.1027 201° Southwest 373 429 19,700 3,333 Climbing Aus ATC (RADAR)
06:47AM -27.6980 153.0970 201° Southwest 375 432 20,200 3,429 Climbing FlightAware
06:47AM -27.7405 153.0781 201° Southwest 376 433 21,700 3,450 Climbing Aus ATC (RADAR)
06:47AM -27.7630 153.0680 201° Southwest 370 426 22,500 3,214 Climbing FlightAware
06:48AM -27.8290 153.0390 201° Southwest 366 421 24,700 3,000 Climbing FlightAware
06:49AM -27.8910 153.0120 201° Southwest 366 421 26,500 1,923 Climbing FlightAware
06:49AM -27.9556 152.9831 201° Southwest 375 432 27,200 1,067 Climbing Aus ATC (RADAR)
06:50AM -27.9620 152.9800 201° Southwest 395 455 27,300 1,149 Climbing FlightAware
06:50AM -28.0330 152.9490 201° Southwest 415 478 28,100 1,395 Climbing FlightAware
06:50AM -28.0443 152.9445 201° Southwest 412 474 28,300 1,200 Climbing Aus ATC (RADAR)
06:51AM -28.1190 152.9120 201° Southwest 435 501 29,000 1,200 Climbing FlightAware
06:51AM -28.1652 152.8909 201° Southwest 438 504 29,600 2,250 Climbing Aus ATC (RADAR)
06:52AM -28.1930 152.8790 201° Southwest 432 497 30,500 2,516 Climbing FlightAware
06:52AM -28.2750 152.8430 201° Southwest 423 487 32,200 2,384 Climbing FlightAware
06:53AM -28.3315 152.8176 201° Southwest 421 484 33,400 2,400 Climbing Aus ATC (RADAR)
06:53AM -28.3450 152.8110 201° Southwest 411 473 33,800 2,000 Climbing FlightAware
06:54AM -28.4102 152.7821 201° Southwest 407 468 34,900 1,800 Climbing Aus ATC (RADAR)
06:54AM -28.4160 152.7800 201° Southwest 408 470 35,000 1,269 Climbing FlightAware
06:54AM -28.4950 152.7440 202° Southwest 410 472 36,000 1,412 Climbing FlightAware
06:55AM -28.5422 152.7228 202° Southwest 411 473 36,600 1,200 Climbing Aus ATC (RADAR)
06:55AM -28.5660 152.7120 202° Southwest 413 475 36,800 1,029 Climbing FlightAware
06:55AM -28.6043 152.6948 202° Southwest 413 475 37,200 1,200 Climbing Aus ATC (RADAR)
06:56AM -28.6430 152.6780 202° Southwest 416 479 37,700 1,200 Climbing FlightAware
06:56AM -28.6939 152.6549 202° Southwest 416 479 38,200 1,200 Climbing Aus ATC (RADAR)
06:57AM -28.7140 152.6460 202° Southwest 413 475 38,500 1,200 Climbing FlightAware
06:57AM -28.7563 152.6270 202° Southwest 415 478 38,900 1,200 Climbing Aus ATC (RADAR)
06:57AM -28.7890 152.6120 202° Southwest 411 473 39,300 1,224 Climbing FlightAware
06:58AM -28.8446 152.5874 202° Southwest 411 473 39,900 1,116 Climbing Aus ATC (RADAR)
06:58AM -28.8710 152.5757 201° Southwest 409 471 40,100 333 Climbing Aus ATC (RADAR)
06:58AM -28.8660 152.5780 201° Southwest 408 470 40,000 -176 Descending FlightAware
06:58AM -28.9325 152.5485 201° Southwest 408 470 40,000  Level Aus ATC (RADAR)
06:59AM -28.9390 152.5440 201° Southwest 408 470 40,000  Level FlightAware
06:59AM -29.0040 152.5150 201° Southwest 407 468 40,000  Level FlightAware
07:00AM -29.0552 152.4934 201° Southwest 407 468 40,000  Level Aus ATC (RADAR)
07:00AM -29.0815 152.4818 201° Southwest 407 468 40,000  Level Aus ATC (RADAR)
07:00AM -29.0870 152.4780 201° Southwest 404 465 40,000  Level FlightAware
07:01AM -29.1505 152.4502 201° Southwest 402 463 40,000  Level Aus ATC (RADAR)
07:01AM -29.2276 152.4151 202° Southwest 398 458 40,000  Level Aus ATC (RADAR)
07:02AM -29.2869 152.3875 202° Southwest 396 456 40,000  Level Aus ATC (RADAR)
07:03AM -29.3812 152.3450 201° Southwest 399 459 40,000  Level Aus ATC (RADAR)
07:04AM -29.4579 152.3104 201° Southwest 396 456 40,000  Level Aus ATC (RADAR)
07:04AM -29.4720 152.3030 201° Southwest 395 455 40,000  Level FlightAware
07:04AM -29.5410 152.2710 202° Southwest 397 457 40,000  Level FlightAware
07:05AM -29.5853 152.2522 202° Southwest 398 458 40,000  Level Aus ATC (RADAR)
07:05AM -29.6109 152.2404 202° Southwest 398 458 40,000  Level Aus ATC (RADAR)
07:05AM -29.6180 152.2360 202° Southwest 400 460 40,000  Level FlightAware
07:06AM -29.6711 152.2125 202° Southwest 401 461 40,000  Level Aus ATC (RADAR)
07:06AM -29.6860 152.2050 202° Southwest 402 463 40,000  Level FlightAware
07:07AM -29.7550 152.1740 201° Southwest 403 464 40,000  Level FlightAware
07:07AM -29.8272 152.1422 201° Southwest 404 465 40,000  Level Aus ATC (RADAR)
07:07AM -29.8360 152.1370 201° Southwest 404 465 40,000  Level FlightAware
07:08AM -29.9050 152.1050 202° Southwest 407 468 40,000  Level FlightAware
07:09AM -29.9680 152.0770 202° Southwest 407 468 40,000  Level FlightAware
07:09AM -29.9841 152.0690 202° Southwest 409 471 40,000  Level Aus ATC (RADAR)
07:09AM -30.0440 152.0410 202° Southwest 408 470 40,000  Level FlightAware
07:10AM -30.1096 152.0125 202° Southwest 418 481 40,000  Level Aus ATC (RADAR)
07:10AM -30.1230 152.0050 202° Southwest 421 484 40,000  Level FlightAware
07:10AM -30.1369 151.9999 202° Southwest 421 484 40,000 -167 Level Aus ATC (RADAR)
07:11AM -30.2002 151.9702 202° Southwest 422 486 39,900  Descending Aus ATC (RADAR)
07:11AM -30.2040 151.9670 202° Southwest 422 486 40,000 120 Climbing FlightAware
07:11AM -30.2911 151.9285 202° Southwest 422 486 40,000  Level Aus ATC (RADAR)
07:12AM -30.2860 151.9290 202° Southwest 414 476 40,000  Level FlightAware
07:12AM -30.3547 151.8998 202° Southwest 422 486 40,000  Level Aus ATC (RADAR)
07:12AM -30.3810 151.8850 202° Southwest 422 486 40,000  Level FlightAware
07:13AM -30.4444 151.8561 202° Southwest 420 483 40,000  Level Aus ATC (RADAR)
07:13AM -30.4550 151.8500 202° Southwest 422 486 40,000  Level FlightAware
07:14AM -30.5346 151.8136 202° Southwest 421 484 40,000  Level Aus ATC (RADAR)
07:14AM -30.5280 151.8160 202° Southwest 420 483 40,000  Level FlightAware
07:14AM -30.6070 151.7790 202° Southwest 420 483 40,000 -79 Level FlightAware
07:15AM -30.6786 151.7462 202° Southwest 420 483 39,900  Descending Aus ATC (RADAR)
07:15AM -30.6770 151.7470 202° Southwest 420 483 40,000 240 Climbing FlightAware
07:15AM -30.7239 151.7258 202° Southwest 421 484 40,000  Level Aus ATC (RADAR)
07:16AM -30.7610 151.7070 202° Southwest 420 483 40,000  Level FlightAware
07:17AM -30.8420 151.6700 201° Southwest 415 478 40,000  Level FlightAware
07:17AM -30.9010 151.6420 202° Southwest 423 487 40,000  Level FlightAware
07:18AM -30.9890 151.6000 202° Southwest 40,000  Level FlightAware
07:18AM -31.0495 151.5721 202° Southwest 422 486 40,000  Level Aus ATC (RADAR)
07:19AM -31.0560 151.5690 202° Southwest 423 487 40,000  Level FlightAware
07:19AM -31.1132 151.5421 202° Southwest 424 488 40,000 -75 Level Aus ATC (RADAR)
07:20AM -31.2221 151.4905 202° Southwest 424 488 39,900  Descending Aus ATC (RADAR)
07:20AM -31.2494 151.4782 201° Southwest 423 487 40,000 120 Climbing Aus ATC (RADAR)
07:21AM -31.3127 151.4476 202° Southwest 422 486 40,000  Level Aus ATC (RADAR)
07:21AM -31.3510 151.4290 202° Southwest 418 481 40,000  Level FlightAware
07:22AM -31.4113 151.4015 202° Southwest 416 479 40,000  Level Aus ATC (RADAR)
07:22AM -31.4310 151.3920 202° Southwest 416 479 40,000  Level FlightAware
07:22AM -31.4686 151.3766 202° Southwest 415 478 40,000  Level Aus ATC (RADAR)
07:23AM -31.5090 151.3580 202° Southwest 415 478 40,000  Level FlightAware
07:23AM -31.5732 151.3291 202° Southwest 415 478 40,000  Level Aus ATC (RADAR)
07:24AM -31.6010 151.3170 202° Southwest 421 484 40,000  Level FlightAware
07:24AM -31.6583 151.2910 202° Southwest 419 482 40,000  Level Aus ATC (RADAR)
07:24AM -31.6750 151.2840 202° Southwest 423 487 40,000  Level FlightAware
07:25AM -31.7480 151.2500 202° Southwest 420 483 40,000  Level FlightAware
07:26AM -31.8130 151.2210 202° Southwest 418 481 40,000  Level FlightAware
07:26AM -31.8275 151.2147 202° Southwest 416 479 40,000  Level Aus ATC (RADAR)
07:26AM -31.8486 151.2053 202° Southwest 414 476 40,000  Level Aus ATC (RADAR)
07:26AM -31.9030 151.1810 201° Southwest 424 488 40,000  Level FlightAware
07:26AM -31.9127 151.1765 201° Southwest 419 482 40,000  Level Aus ATC (RADAR)
07:27AM -31.9800 151.1460 201° Southwest 429 494 40,000  Level FlightAware
07:28AM -32.0570 151.1120 201° Southwest 429 494 40,000  Level FlightAware
07:28AM -32.1340 151.0770 201° Southwest 429 494 40,000 -214 Level FlightAware
07:29AM -32.1720 151.0611 201° Southwest 424 488 39,800 -1,900 Descending Aus ATC (RADAR)
07:29AM -32.2450 151.0270 201° Southwest 421 484 38,100 -2,600 Descending FlightAware
07:30AM -32.2811 151.0112 201° Southwest 421 484 37,200 -2,700 Descending Aus ATC (RADAR)
07:30AM -32.3180 150.9940 201° Southwest 422 486 36,300 -3,055 Descending FlightAware
07:31AM -32.3820 150.9661 201° Southwest 426 490 34,400 -3,150 Descending Aus ATC (RADAR)
07:31AM -32.3890 150.9620 201° Southwest 429 494 34,200 -3,429 Descending FlightAware
07:31AM -32.4472 150.9363 201° Southwest 433 498 32,400 -3,067 Descending Aus ATC (RADAR)
07:32AM -32.4720 150.9260 201° Southwest 434 499 31,900 -2,491 Descending FlightAware
07:32AM -32.5527 150.9214 201° Southwest 427 491 30,200 -2,618 Descending Aus ATC (RADAR)
07:32AM -32.5910 150.9290 201° Southwest 434 499 29,500 -2,262 Descending FlightAware
07:33AM -32.6700 150.9430 172° South 422 486 27,900 -2,438 Descending FlightAware
07:34AM -32.7188 150.9514 172° South 409 471 26,900 -2,267 Descending Aus ATC (RADAR)
07:34AM -32.7560 150.9580 172° South 422 486 26,200 -2,426 Descending FlightAware
07:34AM -32.8096 150.9680 172° South 423 487 25,000 -2,550 Descending Aus ATC (RADAR)
07:35AM -32.8350 150.9720 172° South 422 486 24,500 -2,333 Descending FlightAware
07:35AM -32.9110 150.9860 171° South 413 475 22,900 -2,522 Descending FlightAware
07:36AM -32.9682 150.9957 171° South 400 460 21,600 -2,400 Descending Aus ATC (RADAR)
07:36AM -32.9950 151.0010 171° South 402 463 21,100 -2,348 Descending FlightAware
07:36AM -33.0537 151.0114 171° South 400 460 19,800 -2,267 Descending Aus ATC (RADAR)
07:37AM -33.0750 151.0150 171° South 390 449 19,400 -2,280 Descending FlightAware
07:37AM -33.1421 151.0267 171° South 387 445 17,900 -2,250 Descending Aus ATC (RADAR)
07:37AM -33.1460 151.0280 171° South 381 438 17,900 -2,182 Level FlightAware
07:38AM -33.1988 151.0367 171° South 368 423 16,700 -2,267 Descending Aus ATC (RADAR)
07:38AM -33.2240 151.0420 171° South 371 427 16,200 -2,192 Descending FlightAware
07:39AM -33.2864 151.0530 171° South 366 421 14,800 -2,250 Descending Aus ATC (RADAR)
07:39AM -33.2910 151.0540 171° South 360 414 14,700 -2,229 Descending FlightAware
07:39AM -33.3436 151.0640 171° South 357 411 13,500 -2,133 Descending Aus ATC (RADAR)
07:40AM -33.3650 151.0680 171° South 351 404 13,100 -1,855 Descending FlightAware
07:40AM -33.4220 151.0790 171° South 340 391 11,800 -2,190 Descending FlightAware
07:41AM -33.4658 151.0877 171° South 326 375 10,800 -2,100 Descending Aus ATC (RADAR)
07:41AM -33.4890 151.0920 171° South 330 380 10,400 -1,200 Descending FlightAware
07:41AM -33.5178 151.0976 171° South 314 361 10,100 -800 Descending Aus ATC (RADAR)
07:41AM -33.5330 151.1010 171° South 321 369 10,000 -973 Descending FlightAware
07:42AM -33.5700 151.1080 171° South 323 372 9,500 -1,091 Descending FlightAware
07:42AM -33.6120 151.1160 171° South 317 365 9,000 -800 Descending FlightAware
07:43AM -33.6377 151.1210 171° South 317 365 8,900 -300 Descending Aus ATC (RADAR)
07:43AM -33.6430 151.1220 171° South 318 366 8,900 -400 Level FlightAware
07:43AM -33.6790 151.1290 171° South 319 367 8,700 -511 Descending FlightAware
07:43AM -33.7149 151.1360 171° South 311 358 8,500 -480 Descending Aus ATC (RADAR)
07:43AM -33.7150 151.1360 171° South 319 367 8,500 -261 Level FlightAware
07:44AM -33.7430 151.1420 170° South 321 369 8,400 -533 Descending FlightAware
07:44AM -33.7839 151.1494 170° South 320 368 8,100 -720 Descending Aus ATC (RADAR)
07:44AM -33.7810 151.1490 170° South 319 367 8,100 -300 Level FlightAware
07:45AM -33.8110 151.1520 175° South 315 362 8,000 -450 Descending FlightAware
07:45AM -33.8360 151.1480 188° South 310 357 7,800 -533 Descending FlightAware
07:45AM -33.8740 151.1370 194° South 308 354 7,600 -577 Descending FlightAware
07:46AM -33.9148 151.1250 194° South 304 350 7,300 -450 Descending Aus ATC (RADAR)
07:46AM -33.9240 151.1220 194° South 300 345 7,300 -857 Level FlightAware
07:46AM -33.9629 151.1112 194° South 297 342 6,800 -1,219 Descending Aus ATC (RADAR)
07:47AM -34.0162 151.0958 193° South 278 320 6,000 -792 Descending Aus ATC (RADAR)
07:47AM -34.0220 151.0940 193° South 266 306 6,100  Climbing FlightAware
07:48AM -34.0570 151.0838 193° South 259 298 6,000 -574 Descending Aus ATC (RADAR)
07:49AM -34.1363 151.0918 175° South 241 277 5,200 -623 Descending Aus ATC (RADAR)
07:49AM -34.1670 151.1000 175° South 218 251 4,900 -522 Descending FlightAware
07:50AM -34.1760 151.1070 147° Southeast 225 259 4,800 -720 Descending FlightAware
07:50AM -34.1850 151.1230 124° Southeast 230 265 4,600 -720 Descending FlightAware
07:50AM -34.1870 151.1360 101° East 237 273 4,500 -533 Descending FlightAware
07:51AM -34.1830 151.1810 84° East 225 259 4,200 -480 Descending FlightAware
07:51AM -34.1770 151.1980 67° East 214 246 4,100 -480 Descending FlightAware
07:51AM -34.1700 151.2060 43° Northeast 205 236 4,000 -720 Descending FlightAware
07:51AM -34.1570 151.2110 18° North 198 228 3,800 -800 Descending FlightAware
07:51AM -34.1430 151.2150 13° North 201 231 3,600 -900 Descending FlightAware
07:52AM -34.1200 151.2200 10° North 194 223 3,200 -1,222 Descending FlightAware
07:52AM -34.0891 151.2129 10° North 201 231 2,500 -1,200 Descending Aus ATC (RADAR)
07:52AM -34.0930 151.2140 10° North 199 229 2,600 -774 Climbing FlightAware
07:53AM -34.0670 151.2070 347° North 180 207 2,100 -982 Descending FlightAware
07:53AM -34.0460 151.2020 349° North 168 193 1,700 -900 Descending FlightAware
07:54AM -34.0350 151.1990 347° North 150 173 1,500 -1,024 Descending FlightAware
07:54AM -34.0138 151.1936 347° North 147 169 1,000 -800 Descending Aus ATC (RADAR)
07:54AM -34.0140 151.1940 347° North 136 157 1,100 -414 Climbing FlightAware
07:54AM -33.9990 151.1900 348° North 135 155 800 -878 Descending FlightAware
07:55AM -33.9846 151.1860 348° North 143 165 500 -800 Descending Aus ATC (RADAR)
07:55AM -33.9790 151.1840 348° North 148 170 400 -429 Descending FlightAware
07:55AM -33.9590 151.1790 348° North 133 153 -800 Descending FlightAware
07:56AM -33.9480 151.1770 351° North 51 59  Level FlightAware

Login

Don't have an account? Register now (free) for customized features, flight alerts, and more!